DW5686 Weather Reports


Display with metric or nautical units.
time (UTC)temp
F
wind
direction
speed
MPH
gust
MPH
rain 1hr
in
rain 24hr
in
rain mn
in
humidity
%
barometer
mb
20190627120106 74 12 3.0 9.0 0.00 0.00 0.00 83 1023.0
20190627115605 74 18 3.0 9.0 0.00 0.00 0.00 84 1023.0
20190627115105 74 2 3.0 8.0 0.00 0.00 0.00 84 1022.9
20190627114605 73 357 1.0 10.0 0.00 0.00 0.00 85 1022.8
20190627114105 73 354 2.0 10.0 0.00 0.00 0.00 85 1022.8
20190627113605 73 12 3.0 8.0 0.00 0.00 0.00 86 1022.8
20190627113105 73 353 2.0 6.0 0.00 0.00 0.00 87 1022.8
20190627112605 72 356 1.0 2.0 0.00 0.00 0.00 88 1022.8
20190627112104 72 356 0.0 6.0 0.00 0.00 0.00 89 1022.7
20190627111605 72 356 1.0 6.0 0.00 0.00 0.00 88 1022.7
20190627111105 71 11 0.0 3.0 0.00 0.00 0.00 91 1022.7
20190627110605 72 11 1.0 3.0 0.00 0.00 0.00 89 1022.7
20190627110105 71 11 0.0 2.0 0.00 0.00 0.00 91 1022.7
20190627105605 71 13 0.0 2.0 0.00 0.00 0.00 91 1022.7
20190627105105 71 13 1.0 2.0 0.00 0.00 0.00 92 1022.7
20190627104605 71 13 1.0 5.0 0.00 0.00 0.00 92 1022.6
20190627104106 71 13 0.0 6.0 0.00 0.00 0.00 92 1022.6
20190627103606 71 14 0.0 6.0 0.00 0.00 0.00 92 1022.5
20190627103105 70 14 2.0 5.0 0.00 0.00 0.00 93 1022.4
20190627102605 70 14 1.0 5.0 0.00 0.00 0.00 93 1022.3
20190627102105 70 30 1.0 6.0 0.00 0.00 0.00 93 1022.3
20190627101605 70 30 0.0 6.0 0.00 0.00 0.00 93 1022.2
20190627101105 71 30 3.0 6.0 0.00 0.00 0.00 94 1022.3
20190627100605 71 30 1.0 5.0 0.00 0.00 0.00 94 1022.3
20190627100106 70 30 1.0 2.0 0.00 0.00 0.00 95 1022.2
20190627095605 70 30 0.0 5.0 0.00 0.00 0.00 95 1022.3
20190627095105 70 30 1.0 5.0 0.00 0.00 0.00 96 1022.2
20190627094605 70 30 0.0 0.0 0.00 0.00 0.00 96 1022.2
20190627094105 70 30 0.0 0.0 0.00 0.00 0.00 96 1022.1
20190627093605 71 30 0.0 0.0 0.00 0.00 0.00 96 1022.0
20190627093105 70 30 0.0 0.0 0.00 0.00 0.00 98 1021.9
20190627092605 70 30 0.0 0.0 0.00 0.00 0.00 98 1021.9
20190627092105 70 30 0.0 0.0 0.00 0.00 0.00 98 1021.9
20190627091605 70 30 0.0 0.0 0.00 0.00 0.00 98 1021.8
20190627091105 70 30 0.0 0.0 0.00 0.00 0.00 98 1021.9
20190627090605 70 30 0.0 0.0 0.00 0.00 0.00 98 1021.8
20190627090105 70 30 0.0 0.0 0.00 0.00 0.00 98 1021.8
20190627085605 70 30 0.0 0.0 0.00 0.00 0.00 98 1021.9
20190627085105 70 30 0.0 0.0 0.00 0.00 0.00 98 1021.9
20190627084605 70 30 0.0 0.0 0.00 0.00 0.00 98 1022.0
20190627084105 70 30 0.0 0.0 0.00 0.00 0.00 98 1021.9
20190627083605 70 30 0.0 0.0 0.00 0.00 0.00 98 1021.9
20190627083105 70 30 0.0 0.0 0.00 0.00 0.00 98 1021.9
20190627082605 70 30 0.0 0.0 0.00 0.00 0.00 96 1021.8
20190627082105 70 30 0.0 0.0 0.00 0.00 0.00 96 1021.8
20190627081605 70 30 0.0 0.0 0.00 0.00 0.00 97 1021.7
20190627081105 70 30 0.0 0.0 0.00 0.00 0.00 96 1021.7
20190627080605 70 30 0.0 0.0 0.00 0.00 0.00 96 1021.7
20190627080105 70 30 0.0 0.0 0.00 0.00 0.00 96 1021.7
20190627075605 70 30 0.0 0.0 0.00 0.00 0.00 96 1021.7
20190627075105 70 30 0.0 0.0 0.00 0.00 0.00 96 1021.7
20190627074605 70 30 0.0 0.0 0.00 0.00 0.00 96 1021.7
20190627074105 70 30 0.0 0.0 0.00 0.00 0.00 96 1021.7
20190627073605 70 30 0.0 0.0 0.00 0.00 0.00 96 1021.6
20190627073105 70 30 0.0 0.0 0.00 0.00 0.00 96 1021.7
20190627072605 70 30 0.0 0.0 0.00 0.00 0.00 96 1021.6
20190627072105 70 30 0.0 0.0 0.00 0.00 0.00 95 1021.6
20190627071605 70 30 0.0 0.0 0.00 0.00 0.00 95 1021.6
20190627071105 70 30 0.0 0.0 0.00 0.00 0.00 94 1021.6
20190627070605 70 30 0.0 0.0 0.00 0.00 0.00 94 1021.6
20190627070105 70 30 0.0 0.0 0.00 0.00 0.00 94 1021.7
20190627065605 70 30 0.0 0.0 0.00 0.00 0.00 94 1021.7
20190627065105 71 30 0.0 0.0 0.00 0.00 0.00 94 1021.7
20190627064605 71 30 0.0 0.0 0.00 0.00 0.00 94 1021.7
20190627064105 71 30 0.0 0.0 0.00 0.00 0.00 94 1021.7
20190627063605 71 30 0.0 0.0 0.00 0.00 0.00 94 1021.7
20190627063105 71 30 0.0 0.0 0.00 0.00 0.00 94 1021.7
20190627062605 71 30 0.0 0.0 0.00 0.00 0.00 94 1021.7
20190627062105 71 30 0.0 0.0 0.00 0.00 0.00 94 1021.7
20190627061605 71 30 0.0 0.0 0.00 0.00 0.00 94 1021.7
20190627061104 71 30 0.0 0.0 0.00 0.00 0.00 93 1021.7
20190627060604 71 30 0.0 1.0 0.00 0.00 0.00 93 1021.7
20190627060105 71 30 0.0 1.0 0.00 0.00 0.00 93 1021.7
20190627055605 71 30 0.0 1.0 0.00 0.00 0.00 93 1021.8
20190627055105 71 30 0.0 0.0 0.00 0.00 0.00 93 1021.8
20190627054604 71 30 0.0 0.0 0.00 0.00 0.00 93 1021.8
20190627054104 71 30 0.0 0.0 0.00 0.00 0.00 93 1022.0
20190627053605 71 30 0.0 0.0 0.00 0.00 0.00 93 1021.9
20190627053105 71 30 0.0 0.0 0.00 0.00 0.00 93 1021.9
20190627052605 71 30 0.0 0.0 0.00 0.00 0.00 93 1022.0
20190627052105 72 30 0.0 0.0 0.00 0.00 0.00 93 1022.1
20190627051605 72 30 0.0 14.0 0.00 0.00 0.00 93 1022.1
20190627051105 72 30 0.0 14.0 0.00 0.00 0.00 93 1022.1
20190627050605 72 30 0.0 14.0 0.00 0.00 0.00 92 1022.0
20190627050106 72 30 0.0 0.0 0.00 0.00 0.00 92 1022.0
20190627045604 72 30 0.0 2.0 0.00 0.00 0.00 91 1022.0
20190627045104 72 30 0.0 2.0 0.00 0.00 0.00 91 1022.0
20190627044604 72 30 1.0 2.0 0.00 0.00 0.00 91 1021.8
20190627044104 72 30 0.0 0.0 0.00 0.00 0.00 91 1021.8
20190627043604 72 30 0.0 0.0 0.00 0.00 0.00 91 1021.8
20190627043104 72 30 0.0 0.0 0.00 0.00 0.00 89 1021.7
20190627042605 72 30 0.0 0.0 0.00 0.00 0.00 89 1021.8
20190627042104 72 30 0.0 0.0 0.00 0.00 0.00 89 1021.7
20190627041604 73 30 0.0 0.0 0.00 0.00 0.00 89 1021.7
20190627041105 73 30 0.0 0.0 0.00 0.00 0.00 88 1021.7
20190627040605 73 30 0.0 0.0 0.00 0.00 0.00 89 1021.7
20190627040106 73 30 0.0 0.0 0.00 0.00 0.00 88 1021.6
20190627035605 73 30 0.0 0.0 0.00 0.00 0.00 89 1021.6
20190627035105 73 30 0.0 0.0 0.00 0.00 0.00 89 1021.6
20190627034605 73 30 0.0 0.0 0.00 0.00 0.00 88 1021.6
20190627034105 73 30 0.0 0.0 0.00 0.00 0.00 87 1021.6
20190627033604 73 30 0.0 0.0 0.00 0.00 0.00 88 1021.4
20190627033104 73 30 0.0 0.0 0.00 0.00 0.00 88 1021.3
20190627032605 73 30 0.0 0.0 0.00 0.00 0.00 88 1021.2
20190627032105 73 30 0.0 0.0 0.00 0.00 0.00 87 1021.2
20190627031605 73 30 0.0 0.0 0.00 0.00 0.00 86 1021.2
20190627031105 73 30 0.0 0.0 0.00 0.00 0.00 82 1021.2
20190627030605 73 30 0.0 0.0 0.00 0.00 0.00 84 1021.3
20190627030104 74 30 0.0 0.0 0.00 0.00 0.00 82 1021.2
20190627025604 74 30 0.0 0.0 0.00 0.00 0.00 79 1021.2
20190627025105 74 30 0.0 0.0 0.00 0.00 0.00 77 1021.2
20190627024604 74 30 0.0 0.0 0.00 0.00 0.00 76 1021.2
20190627024104 74 30 0.0 0.0 0.00 0.00 0.00 78 1021.2
20190627023604 74 30 0.0 0.0 0.00 0.00 0.00 79 1021.1
20190627023105 74 30 0.0 0.0 0.00 0.00 0.00 77 1021.1
20190627022605 74 30 0.0 0.0 0.00 0.00 0.00 77 1021.1
20190627022105 74 30 0.0 0.0 0.00 0.00 0.00 77 1021.0
20190627021605 74 30 0.0 0.0 0.00 0.00 0.00 76 1021.0
20190627021105 74 30 0.0 0.0 0.00 0.00 0.00 76 1021.0
20190627020605 74 30 0.0 0.0 0.00 0.00 0.00 76 1021.1
20190627020105 74 30 0.0 0.0 0.00 0.00 0.00 75 1021.0
20190627015604 74 30 0.0 0.0 0.00 0.00 0.00 75 1020.9
20190627015104 74 30 0.0 0.0 0.00 0.00 0.00 73 1020.9
20190627014605 75 30 0.0 0.0 0.00 0.00 0.00 72 1020.8
20190627014105 75 30 0.0 0.0 0.00 0.00 0.00 69 1020.7
20190627013605 75 30 0.0 0.0 0.00 0.00 0.00 70 1020.7
20190627013104 75 30 0.0 0.0 0.00 0.00 0.00 69 1020.7
20190627012604 75 30 0.0 0.0 0.00 0.00 0.00 71 1020.6
20190627012105 75 30 0.0 0.0 0.00 0.00 0.00 68 1020.6
20190627011604 75 30 0.0 0.0 0.00 0.00 0.00 68 1020.6
20190627011105 75 30 0.0 0.0 0.00 0.00 0.00 71 1020.6
20190627010605 76 30 0.0 0.0 0.00 0.00 0.00 69 1020.6
20190627010105 76 30 0.0 0.0 0.00 0.00 0.00 72 1020.6
20190627005605 76 30 0.0 0.0 0.00 0.00 0.00 70 1020.6
20190627005104 77 30 0.0 0.0 0.00 0.00 0.00 69 1020.6
20190627004604 77 30 0.0 0.0 0.00 0.00 0.00 69 1020.6
20190627004105 77 30 0.0 0.0 0.00 0.00 0.00 69 1020.6
20190627003605 77 30 0.0 0.0 0.00 0.00 0.00 69 1020.6
20190627003105 77 30 0.0 0.0 0.00 0.00 0.00 68 1020.6
20190627002605 77 30 0.0 0.0 0.00 0.00 0.00 66 1020.6
20190627002105 78 30 0.0 0.0 0.00 0.00 0.00 65 1020.6
20190627001605 78 30 0.0 0.0 0.00 0.00 0.00 64 1020.6
20190627001105 78 30 0.0 0.0 0.00 0.00 0.00 62 1020.7
20190627000605 78 30 0.0 0.0 0.00 0.00 0.00 66 1020.7
20190627000105 78 30 0.0 0.0 0.00 0.00 0.00 63 1020.7
20190626235605 79 30 0.0 0.0 0.00 0.00 0.00 63 1020.7
20190626235104 79 30 0.0 0.0 0.00 0.00 0.00 65 1020.8
20190626234605 79 30 0.0 0.0 0.00 0.00 0.00 66 1020.8
20190626234104 79 30 0.0 0.0 0.00 0.00 0.00 64 1021.0
20190626233605 79 30 0.0 0.0 0.00 0.00 0.00 65 1021.0
20190626233105 80 30 0.0 0.0 0.00 0.00 0.00 63 1021.0
20190626232604 80 30 0.0 0.0 0.00 0.00 0.00 62 1020.9
20190626232104 81 30 0.0 0.0 0.00 0.00 0.00 59 1020.9
20190626231605 81 30 0.0 0.0 0.00 0.00 0.00 58 1020.9
20190626231104 81 30 0.0 1.0 0.00 0.00 0.00 59 1020.8
20190626230605 81 30 0.0 1.0 0.00 0.00 0.00 60 1020.8
20190626230105 82 30 0.0 1.0 0.00 0.00 0.00 56 1020.9
20190626225605 81 30 0.0 2.0 0.00 0.00 0.00 58 1020.9
20190626225104 82 30 0.0 2.0 0.00 0.00 0.00 61 1021.0
20190626224604 82 30 0.0 2.0 0.00 0.00 0.00 60 1020.9
20190626224105 81 30 0.0 1.0 0.00 0.00 0.00 61 1020.9
20190626223605 81 30 0.0 1.0 0.00 0.00 0.00 63 1020.8
20190626223104 81 30 0.0 0.0 0.00 0.00 0.00 58 1020.7
20190626222605 81 30 0.0 0.0 0.00 0.00 0.00 59 1020.7
20190626222104 81 30 0.0 1.0 0.00 0.00 0.00 60 1020.7
20190626221604 81 30 0.0 1.0 0.00 0.00 0.00 63 1020.6
20190626221104 81 30 0.0 1.0 0.00 0.00 0.00 59 1020.7
20190626220604 81 30 0.0 5.0 0.00 0.00 0.00 62 1020.7
20190626220106 82 30 0.0 5.0 0.00 0.00 0.00 57 1020.7
20190626215604 82 30 0.0 5.0 0.00 0.00 0.00 57 1020.7
20190626215105 82 30 1.0 5.0 0.00 0.00 0.00 59 1020.8
20190626214604 82 0 0.0 2.0 0.00 0.00 0.00 57 1020.7
20190626214104 82 0 1.0 2.0 0.00 0.00 0.00 52 1020.7
20190626213605 82 0 0.0 3.0 0.00 0.00 0.00 60 1020.7
20190626213104 82 359 1.0 3.0 0.00 0.00 0.00 53 1020.6
20190626212604 82 357 0.0 5.0 0.00 0.00 0.00 58 1020.6
20190626212105 82 357 2.0 5.0 0.00 0.00 0.00 47 1020.7
20190626211605 82 357 0.0 1.0 0.00 0.00 0.00 57 1020.7
20190626211104 82 357 0.0 1.0 0.00 0.00 0.00 55 1020.7
20190626210605 82 357 0.0 1.0 0.00 0.00 0.00 56 1020.7
20190626210105 82 357 0.0 3.0 0.00 0.00 0.00 56 1020.8
20190626205605 82 357 0.0 3.0 0.00 0.00 0.00 56 1020.8
20190626205104 82 357 0.0 5.0 0.00 0.00 0.00 55 1020.7
20190626204605 83 0 1.0 7.0 0.00 0.00 0.00 53 1020.8
20190626204105 83 24 1.0 7.0 0.00 0.00 0.00 49 1020.9
20190626203604 83 14 2.0 6.0 0.00 0.00 0.00 47 1020.8
20190626203104 83 28 1.0 8.0 0.00 0.00 0.00 50 1020.9
20190626202604 83 17 3.0 8.0 0.00 0.00 0.00 48 1021.0
20190626202105 83 12 2.0 7.0 0.00 0.00 0.00 48 1021.1
20190626201604 83 23 1.0 9.0 0.00 0.00 0.00 52 1021.0
20190626201104 83 26 2.0 9.0 0.00 0.00 0.00 51 1021.1
20190626200604 83 2 4.0 8.0 0.00 0.00 0.00 48 1021.2
20190626200104 83 18 3.0 7.0 0.00 0.00 0.00 49 1021.2
20190626195605 83 21 1.0 6.0 0.00 0.00 0.00 53 1021.2
20190626195104 83 2 1.0 7.0 0.00 0.00 0.00 47 1021.2
20190626194605 83 2 3.0 7.0 0.00 0.00 0.00 47 1021.2
20190626194104 83 20 3.0 6.0 0.00 0.00 0.00 50 1021.2
20190626193605 83 34 1.0 6.0 0.00 0.00 0.00 47 1021.2
20190626193105 84 37 1.0 6.0 0.00 0.00 0.00 51 1021.2
20190626192604 84 288 2.0 9.0 0.00 0.00 0.00 51 1021.2
20190626192105 84 2 3.0 9.0 0.00 0.00 0.00 45 1021.2
20190626191604 84 31 1.0 6.0 0.00 0.00 0.00 44 1021.2
20190626191105 84 37 0.0 6.0 0.00 0.00 0.00 45 1021.2
20190626190605 83 37 1.0 8.0 0.00 0.00 0.00 45 1021.3
20190626190105 83 35 3.0 8.0 0.00 0.00 0.00 47 1021.5
20190626185604 84 40 1.0 7.0 0.00 0.00 0.00 45 1021.4
20190626185104 84 25 4.0 7.0 0.00 0.00 0.00 47 1021.5
20190626184605 84 321 1.0 6.0 0.00 0.00 0.00 48 1021.4
20190626184104 84 353 1.0 8.0 0.00 0.00 0.00 44 1021.3
20190626183605 84 2 4.0 8.0 0.00 0.00 0.00 44 1021.2
20190626183105 84 28 2.0 7.0 0.00 0.00 0.00 46 1021.3
20190626182605 84 8 2.0 8.0 0.00 0.00 0.00 45 1021.2
20190626182104 84 1 3.0 12.0 0.00 0.00 0.00 42 1021.2
20190626181605 84 29 7.0 12.0 0.00 0.00 0.00 42 1021.2
20190626181104 84 28 4.0 7.0 0.00 0.00 0.00 44 1021.2
20190626180604 84 25 2.0 13.0 0.00 0.00 0.00 43 1021.3
20190626180104 84 317 4.0 13.0 0.00 0.00 0.00 43 1021.4
20190626175604 83 8 5.0 9.0 0.00 0.00 0.00 44 1021.5
20190626175105 83 13 3.0 10.0 0.00 0.00 0.00 47 1021.6
20190626174604 83 13 6.0 10.0 0.00 0.00 0.00 45 1021.6
20190626174104 83 26 6.0 10.0 0.00 0.00 0.00 46 1021.7
20190626173604 83 19 5.0 10.0 0.00 0.00 0.00 44 1021.7
20190626173104 84 14 4.0 10.0 0.00 0.00 0.00 49 1021.8
20190626172604 84 350 4.0 8.0 0.00 0.00 0.00 45 1021.8
20190626172104 84 41 2.0 10.0 0.00 0.00 0.00 49 1021.9
20190626171605 84 13 3.0 10.0 0.00 0.00 0.00 47 1022.0
20190626171104 83 16 1.0 10.0 0.00 0.00 0.00 45 1022.1
20190626170604 83 27 6.0 10.0 0.00 0.00 0.00 45 1022.1
20190626170104 83 359 3.0 9.0 0.00 0.00 0.00 48 1022.1
20190626165604 84 340 2.0 12.0 0.00 0.00 0.00 46 1022.1
20190626165104 83 5 5.0 13.0 0.00 0.00 0.00 48 1022.2
20190626164604 83 11 7.0 13.0 0.00 0.00 0.00 45 1022.2
20190626164104 84 5 5.0 14.0 0.00 0.00 0.00 46 1022.2
20190626163605 83 22 6.0 14.0 0.00 0.00 0.00 48 1022.2
20190626163105 83 26 2.0 9.0 0.00 0.00 0.00 50 1022.2
20190626162604 82 63 5.0 10.0 0.00 0.00 0.00 50 1022.2
20190626162104 83 23 5.0 10.0 0.00 0.00 0.00 50 1022.2
20190626161604 83 11 6.0 10.0 0.00 0.00 0.00 47 1022.2
20190626161104 83 356 4.0 10.0 0.00 0.00 0.00 49 1022.2
20190626160604 83 8 4.0 10.0 0.00 0.00 0.00 48 1022.2
20190626160105 83 38 4.0 9.0 0.00 0.00 0.00 49 1022.2
20190626155605 83 18 3.0 10.0 0.00 0.00 0.00 51 1022.2
20190626155104 82 13 4.0 10.0 0.00 0.00 0.00 52 1022.2
20190626154604 82 12 6.0 10.0 0.00 0.00 0.00 49 1022.2
20190626154104 82 6 2.0 9.0 0.00 0.00 0.00 52 1022.2
20190626153604 82 25 6.0 9.0 0.00 0.00 0.00 52 1022.2
20190626153104 81 17 6.0 14.0 0.00 0.00 0.00 50 1022.0
20190626152604 82 13 3.0 14.0 0.00 0.00 0.00 48 1022.1
20190626152104 81 18 7.0 14.0 0.00 0.00 0.00 50 1022.1
20190626151604 82 26 6.0 14.0 0.00 0.00 0.00 52 1022.2
20190626151104 82 31 7.0 12.0 0.00 0.00 0.00 51 1022.2
20190626150604 81 26 2.0 10.0 0.00 0.00 0.00 55 1022.2
20190626150104 81 346 5.0 10.0 0.00 0.00 0.00 56 1022.2
20190626145605 80 6 5.0 10.0 0.00 0.00 0.00 55 1022.2
20190626145104 80 10 6.0 9.0 0.00 0.00 0.00 54 1022.2
20190626144605 81 0 3.0 10.0 0.00 0.00 0.00 53 1022.2
20190626144104 81 4 5.0 10.0 0.00 0.00 0.00 55 1022.2
20190626143604 80 37 3.0 10.0 0.00 0.00 0.00 54 1022.2
20190626143105 80 36 5.0 10.0 0.00 0.00 0.00 56 1022.2
20190626142604 80 17 2.0 16.0 0.00 0.00 0.00 59 1022.1
20190626142104 80 39 6.0 16.0 0.00 0.00 0.00 57 1022.0
20190626141604 80 63 8.0 16.0 0.00 0.00 0.00 57 1022.0
20190626141104 80 24 5.0 14.0 0.00 0.00 0.00 57 1022.1
20190626140604 80 25 5.0 14.0 0.00 0.00 0.00 57 1022.1
20190626140104 80 6 4.0 14.0 0.00 0.00 0.00 58 1022.1
20190626135104 79 29 3.0 12.0 0.00 0.00 0.00 63 1022.2
20190626134604 78 19 3.0 10.0 0.00 0.00 0.00 63 1022.1
20190626133605 78 8 3.0 8.0 0.00 0.00 0.00 64 1022.1
20190626133105 78 19 5.0 8.0 0.00 0.00 0.00 66 1022.0
20190626132604 78 14 1.0 9.0 0.00 0.00 0.00 69 1022.0
20190626132104 78 12 2.0 10.0 0.00 0.00 0.00 68 1022.1
20190626131604 78 22 5.0 10.0 0.00 0.00 0.00 66 1022.1
20190626131104 77 35 2.0 9.0 0.00 0.00 0.00 69 1022.1
20190626130604 77 31 6.0 9.0 0.00 0.00 0.00 67 1022.1
20190626130104 76 8 1.0 8.0 0.00 0.00 0.00 70 1022.1
20190626125604 76 8 2.0 8.0 0.00 0.00 0.00 70 1022.1
20190626125104 76 21 3.0 8.0 0.00 0.00 0.00 71 1022.1
20190626124604 75 14 1.0 8.0 0.00 0.00 0.00 72 1022.0
20190626124103 75 30 2.0 8.0 0.00 0.00 0.00 72 1021.8
20190626123604 75 25 1.0 7.0 0.00 0.00 0.00 73 1021.7
20190626123104 74 357 3.0 7.0 0.00 0.00 0.00 73 1021.8
20190626122604 74 7 2.0 7.0 0.00 0.00 0.00 75 1021.8
20190626122104 73 12 2.0 9.0 0.00 0.00 0.00 76 1021.7
20190626121605 73 4 5.0 9.0 0.00 0.00 0.00 76 1021.7
20190626121104 73 8 1.0 7.0 0.00 0.00 0.00 77 1021.7
20190626120604 72 8 3.0 6.0 0.00 0.00 0.00 78 1021.7